Date String (YYYY-MM-DD hh:mm:ss) UTC,Instrument flags,absolute air pressure of the measurement (hPa),sample flow rate (lpm),inlet stack bypass flow (lpm),air temperature of the measurement (°C),ambient temperature measured by the external sensor (°C),aerosol sample conditioner tube jacket temperature (°C),OPC LED temperature (°C),internal box temperature (°C),relative humidity of the measurement (%),span deviation,mass concentration of particles derived from Lorenz-Mie calculation of OPC scattering (μg/m³),mass concentration of particles derived from Lorenz-Mie calculation of OPC scattering (μg/m³),mass concentration of particles derived from Lorenz-Mie calculation of OPC scattering (μg/m³)
DateTimeUTC,F1_M11,P_M11,Q1_M11,Q2_M11,T1_M11,T2_M11,T3_M11,T4_M11,T5_M11,U1_M11,ZSPAN_M11,X2_M11,X0_M11,X1_M11
2024-02-06 06:00:00,SystemResetWarning,0827.3,4.99,000.00,021.3,020.6,000.0,029.7,023.0,16.9,0000.0,0001.46,0003.39,0001.34
2024-02-06 06:01:00,SystemResetWarning,0827.2,5.00,000.00,021.2,020.6,000.0,029.7,023.0,16.9,0000.0,0001.47,0003.49,0001.34
2024-02-06 06:02:00,SystemResetWarning,0827.2,5.00,000.00,021.2,020.6,000.0,029.7,023.0,16.9,0000.0,0001.47,0003.42,0001.33
2024-02-06 06:03:00,SystemResetWarning,0827.2,5.00,000.00,021.2,020.6,000.0,029.7,023.0,16.9,0000.0,0001.48,0002.45,0001.33
2024-02-06 06:04:00,SystemResetWarning,0827.2,5.00,000.00,021.2,020.6,000.0,029.7,023.0,16.9,0000.0,0001.48,0002.57,0001.32
2024-02-06 06:05:00,SystemResetWarning,0827.2,4.99,000.00,021.2,020.6,000.0,029.6,023.0,16.9,0000.0,0001.47,0002.70,0001.31
2024-02-06 06:06:00,SystemResetWarning,0827.2,4.99,000.00,021.2,020.6,000.0,029.6,023.0,17.0,0000.0,0001.48,0002.70,0001.30
2024-02-06 06:07:00,SystemResetWarning,0827.3,5.00,000.00,021.2,020.5,000.0,029.6,023.0,17.1,0000.0,0001.46,0002.20,0001.28
2024-02-06 06:08:00,SystemResetWarning,0827.3,5.00,000.00,021.2,020.5,000.0,029.6,023.0,17.1,0000.0,0001.47,0002.25,0001.28
2024-02-06 06:09:00,SystemResetWarning,0827.3,5.01,000.00,021.2,020.5,000.0,029.6,023.0,17.2,0000.0,0001.51,0002.37,0001.28
2024-02-06 06:10:00,SystemResetWarning,0827.4,5.01,000.00,021.2,020.5,000.0,029.6,023.0,17.1,0000.0,0001.53,0002.43,0001.29
2024-02-06 06:11:00,SystemResetWarning,0827.4,5.00,000.00,021.2,020.5,000.0,029.6,023.0,17.0,0000.0,0001.52,0002.41,0001.28
2024-02-06 06:12:00,SystemResetWarning,0827.4,4.99,000.00,021.2,020.5,000.0,029.6,022.9,17.1,0000.0,0001.49,0002.29,0001.28
2024-02-06 06:13:00,SystemResetWarning,0827.4,4.99,000.00,021.2,020.5,000.0,029.6,022.9,17.0,0000.0,0001.49,0002.33,0001.27
2024-02-06 06:14:00,SystemResetWarning,0827.4,5.02,000.00,021.2,020.5,000.0,029.6,022.9,17.0,0000.0,0001.50,0002.43,0001.25
2024-02-06 06:15:00,SystemResetWarning,0827.4,5.00,000.00,021.2,020.5,000.0,029.6,022.9,17.1,0000.0,0001.52,0003.32,0001.25
2024-02-06 06:16:00,SystemResetWarning,0827.4,5.00,000.00,021.2,020.4,000.0,029.6,022.9,17.2,0000.0,0001.50,0003.49,0001.25
2024-02-06 06:17:00,SystemResetWarning,0827.4,5.00,000.00,021.2,020.5,000.0,029.6,022.9,17.5,0000.0,0001.51,0003.49,0001.25
2024-02-06 06:18:00,SystemResetWarning,0827.4,5.00,000.00,021.2,020.4,000.0,029.6,022.9,17.5,0000.0,0001.52,0003.47,0001.27
2024-02-06 06:19:00,SystemResetWarning,0827.4,5.00,000.00,021.2,020.4,000.0,029.6,022.9,17.3,0000.0,0001.57,0003.55,0001.28
2024-02-06 06:20:00,SystemResetWarning,0827.4,4.99,000.00,021.1,020.4,000.0,029.5,022.9,17.2,0000.0,0001.59,0003.53,0001.30
2024-02-06 06:21:00,SystemResetWarning,0827.4,5.00,000.00,021.1,020.4,000.0,029.5,022.8,17.3,0000.0,0001.60,0003.51,0001.30
2024-02-06 06:22:00,SystemResetWarning,0827.4,5.02,000.00,021.1,020.4,000.0,029.5,022.8,17.3,0000.0,0001.61,0003.54,0001.32
2024-02-06 06:23:00,SystemResetWarning,0827.3,5.00,000.00,021.1,020.4,000.0,029.5,022.8,17.3,0000.0,0001.61,0003.52,0001.32
2024-02-06 06:24:00,SystemResetWarning,0827.2,5.00,000.00,021.1,020.4,000.0,029.5,022.8,17.3,0000.0,0001.63,0003.52,0001.34
2024-02-06 06:25:00,SystemResetWarning,0827.2,4.99,000.00,021.1,020.4,000.0,029.5,022.8,17.2,0000.0,0001.64,0003.50,0001.37
2024-02-06 06:26:00,SystemResetWarning,0827.2,4.99,000.00,021.1,020.4,000.0,029.5,022.8,17.3,0000.0,0001.65,0002.84,0001.40
2024-02-06 06:27:00,SystemResetWarning,0827.2,5.01,000.00,021.1,020.4,000.0,029.5,022.8,17.4,0000.0,0001.67,0002.51,0001.43
2024-02-06 06:28:00,SystemResetWarning,0827.2,5.01,000.00,021.1,020.4,000.0,029.5,022.8,17.4,0000.0,0001.68,0002.93,0001.44
2024-02-06 06:29:00,SystemResetWarning,0827.2,5.00,000.00,021.1,020.4,000.0,029.5,022.8,17.5,0000.0,0001.67,0002.91,0001.45
2024-02-06 06:30:00,SystemResetWarning,0827.3,5.00,000.00,021.1,020.3,000.0,029.5,022.8,17.6,0000.0,0001.65,0002.85,0001.47
2024-02-06 06:31:00,SystemResetWarning,0827.3,5.00,000.00,021.1,020.3,000.0,029.5,022.8,17.6,0000.0,0001.62,0002.77,0001.48
2024-02-06 06:32:00,SystemResetWarning,0827.3,5.00,000.00,021.1,020.3,000.0,029.4,022.8,17.6,0000.0,0001.64,0002.81,0001.50
2024-02-06 06:33:00,SystemResetWarning,0827.3,4.99,000.00,021.1,020.3,000.0,029.4,022.7,17.6,0000.0,0001.67,0002.85,0001.52
2024-02-06 06:34:00,SystemResetWarning,0827.2,4.99,000.00,021.1,020.3,000.0,029.4,022.8,17.5,0000.0,0001.68,0002.87,0001.53
2024-02-06 06:35:00,SystemResetWarning,0827.2,5.00,000.00,021.0,020.3,000.0,029.4,022.7,17.4,0000.0,0001.68,0002.86,0001.53
2024-02-06 06:36:00,SystemResetWarning,0827.2,5.00,000.00,021.0,020.3,000.0,029.4,022.7,17.5,0000.0,0001.65,0002.76,0001.53
2024-02-06 06:37:00,SystemResetWarning,0827.2,5.00,000.00,021.0,020.3,000.0,029.4,022.7,17.6,0000.0,0001.64,0002.72,0001.53
2024-02-06 06:38:00,SystemResetWarning,0827.2,5.01,000.00,021.0,020.3,000.0,029.4,022.7,17.6,0000.0,0001.65,0002.58,0001.55
2024-02-06 06:39:00,SystemResetWarning,0827.2,5.01,000.00,021.0,020.3,000.0,029.4,022.7,17.6,0000.0,0001.69,0002.05,0001.58
2024-02-06 06:40:00,SystemResetWarning,0827.2,5.00,000.00,021.0,020.3,000.0,029.4,022.7,17.6,0000.0,0001.71,0002.08,0001.61
2024-02-06 06:41:00,SystemResetWarning,0827.2,5.00,000.00,021.0,020.2,000.0,029.4,022.7,17.4,0000.0,0001.70,0002.05,0001.60
2024-02-06 06:42:00,SystemResetWarning,0827.2,5.00,000.00,021.0,020.2,000.0,029.4,022.7,17.4,0000.0,0001.72,0002.11,0001.61
2024-02-06 06:43:00,SystemResetWarning,0827.2,5.00,000.00,021.0,020.2,000.0,029.4,022.7,17.5,0000.0,0001.72,0002.11,0001.61
2024-02-06 06:44:00,SystemResetWarning,0827.2,4.99,000.00,021.0,020.2,000.0,029.4,022.7,17.5,0000.0,0001.72,0002.08,0001.62
2024-02-06 06:45:00,SystemResetWarning,0827.2,5.00,000.00,021.0,020.2,000.0,029.4,022.7,17.5,0000.0,0001.74,0002.13,0001.63
2024-02-06 06:46:00,SystemResetWarning,0827.2,4.99,000.00,021.0,020.2,000.0,029.4,022.7,17.7,0000.0,0001.77,0002.18,0001.65
2024-02-06 06:47:00,SystemResetWarning,0827.2,5.01,000.00,020.9,020.2,000.0,029.3,022.7,17.6,0000.0,0001.77,0002.22,0001.64
2024-02-06 06:48:00,SystemResetWarning,0827.1,5.00,000.00,020.9,020.2,000.0,029.3,022.7,17.6,0000.0,0001.77,0002.22,0001.63
2024-02-06 06:49:00,SystemResetWarning,0827.1,5.01,000.00,020.9,020.2,000.0,029.3,022.7,17.6,0000.0,0001.76,0002.23,0001.62
2024-02-06 06:50:00,SystemResetWarning,0827.1,5.00,000.00,020.9,020.2,000.0,029.3,022.6,17.5,0000.0,0001.74,0002.20,0001.59
2024-02-06 06:51:00,SystemResetWarning,0827.2,5.00,000.00,020.9,020.2,000.0,029.3,022.6,17.5,0000.0,0001.71,0002.17,0001.56
2024-02-06 06:52:00,SystemResetWarning,0827.2,5.01,000.00,020.9,020.2,000.0,029.3,022.6,17.5,0000.0,0001.72,0002.19,0001.56
2024-02-06 06:53:00,SystemResetWarning,0827.2,4.99,000.00,020.9,020.2,000.0,029.3,022.6,17.5,0000.0,0001.72,0002.17,0001.56
2024-02-06 06:54:00,SystemResetWarning,0827.1,5.00,000.00,020.9,020.2,000.0,029.3,022.6,17.5,0000.0,0001.71,0002.14,0001.55
2024-02-06 06:55:00,SystemResetWarning,0827.1,5.00,000.00,020.9,020.2,000.0,029.3,022.6,17.5,0000.0,0001.70,0002.13,0001.53
2024-02-06 06:56:00,SystemResetWarning,0827.1,4.99,000.00,020.9,020.1,000.0,029.3,022.6,17.4,0000.0,0001.68,0002.07,0001.51
2024-02-06 06:57:00,SystemResetWarning,0827.1,5.00,000.00,020.9,020.1,000.0,029.3,022.6,17.4,0000.0,0001.72,0002.11,0001.52
2024-02-06 06:58:00,SystemResetWarning,0827.2,5.00,000.00,020.9,020.1,000.0,029.3,022.6,17.4,0000.0,0001.74,0002.14,0001.54
2024-02-06 06:59:00,SystemResetWarning,0827.2,5.00,000.00,020.9,020.1,000.0,029.3,022.6,17.4,0000.0,0001.78,0002.19,0001.58
